Effective Sunday, March 17, 2024, the National Weather Service National Data Buoy Center will discontinue its Dial-A-Buoy Interactive Voice Response system. For more information, see Service Change Notice 24-06 (PDF).

Station FAIO1 - 9063053 - Fairport, OH Image indicating link to RSS feed of recent meteorological observations for station FAIO1


Conditions at FAIO1 as of
(4:18 pm EST)
2118 GMT on 03/03/2024:
     

Click on the graph icon in the table below to see a time series plot of the last five days of that observation.

5-day plot - Wind Direction Wind Direction (WDIR):NNE ( 30 deg true )
5-day plot - Wind Speed Wind Speed (WSPD): 12.0 kts
5-day plot - Wind Gust Wind Gust (GST): 15.0 kts
5-day plot - Atmospheric Pressure Atmospheric Pressure (PRES):30.05 in
5-day plot - Water Temperature Water Temperature (WTMP): 43.7 °F
5-day plot - Wind Speed at 10 Meters Wind Speed at 10 meters (WSPD10M): 11.7 kts
5-day plot - Wind Speed at 20 Meters Wind Speed at 20 meters (WSPD20M): 11.7 kts
5-day plot -  Wind Speed, Wind Gust and Atmospheric Pressure Combined plot of Wind Speed, Gust, and Air Pressure
NOS Water Level Observation Network Water Level
Previous observations
TIME
(EST)
5-day plot - Wind Direction
WDIR
 
5-day plot - Wind Speed
WSPD
kts
5-day plot - Wind Gust
GST
kts
5-day plot - Wave Height
WVHT
ft
5-day plot - Dominant Wave Period
DPD
sec
5-day plot - Average Wave Period
APD
sec
5-day plot - Mean Wave Direction
MWD
 
5-day plot - Atmospheric Pressure
PRES
in
5-day plot - Pressure Tendency
PTDY
in
5-day plot - Air Temperature
ATMP
°F
5-day plot - Water Temperature
WTMP
°F
5-day plot - Dew Point
DEWP
°F
5-day plot - Salinity
SAL
psu
5-day plot - Visibility
VIS
nmi
5-day plot - Tide (above MLLW)
TIDE
ft
2024-03-03 04:12 pm NE 15.0 15.9----30.06-- 43.9----
2024-03-03 04:06 pm NE 14.0 15.9----30.06-- 44.1----
2024-03-03 04:00 pm NE 12.0 13.0----30.06-0.06- 44.2----
2024-03-03 03:54 pm NE 8.9 13.0----30.06-- 43.9----
2024-03-03 03:48 pmNNE 8.0 13.0----30.06- 55.2 43.9 43.9---
2024-03-03 03:42 pmESE 6.0 8.9----30.06- 54.9 44.1 44.1---
2024-03-03 03:36 pm E 6.0 7.0----30.06- 54.7 43.7 43.9---
2024-03-03 03:30 pm--------- 54.5 43.5 43.9---
2024-03-03 03:24 pm--------- 54.5 43.5 43.9---
2024-03-03 03:18 pm E 8.0 9.9----30.07- 54.3 43.5 44.4---
2024-03-03 03:12 pmESE 8.9 11.1----30.07- 52.5 43.7 43.5---
2024-03-03 03:06 pmESE 11.1 12.0----30.07- 53.6 43.7 44.1---
2024-03-03 03:00 pmESE 8.9 14.0----30.07-0.07 53.4- 42.6---
2024-03-03 02:54 pmESE 8.0 12.0----30.07- 53.8- 44.2---
2024-03-03 02:48 pmSSE 9.9 12.0----30.07- 53.4 43.5 44.2---
2024-03-03 02:42 pmSSE 7.0 12.0----30.07- 52.7 43.7 44.1---
2024-03-03 02:36 pm SE 8.9 15.0----30.07- 52.7 43.7 43.5---
2024-03-03 02:30 pmESE 9.9 12.0----30.07-- 43.2----
2024-03-03 02:24 pm SE 8.9 13.0----30.08-- 43.0----
2024-03-03 02:18 pm SE 8.9 12.0----30.08-------
2024-03-03 02:12 pm SE 7.0 9.9----30.08-------
2024-03-03 02:06 pm SE 8.0 12.0----30.08-------
2024-03-03 02:00 pmESE 8.9 12.0----30.09-0.06- 43.2----
2024-03-03 01:54 pm SE 8.9 12.0----30.09-- 43.2----
2024-03-03 01:48 pm--------- 52.3-----
2024-03-03 01:42 pm--------- 52.0-----
2024-03-03 01:36 pm--------- 51.8-----
2024-03-03 01:30 pmSSE 8.9 9.9----30.10- 51.8 43.5 42.8---
2024-03-03 01:24 pmSSE 8.9 9.9----30.10- 51.8 43.3 42.8---
2024-03-03 01:18 pmSSE 8.9 12.0----30.11- 51.6 43.5 42.8---
2024-03-03 01:12 pm SE 7.0 8.9----30.11- 52.0 43.5 42.8---
2024-03-03 01:06 pm SE 8.9 12.0----30.11- 52.0 43.3 42.8---
2024-03-03 01:00 pmSSE 8.9 11.1----30.12-0.04 51.3 43.0 42.6---
2024-03-03 12:54 pmSSE 8.0 9.9----30.12- 51.8 43.0 42.8---
2024-03-03 12:48 pmESE 8.9 11.1----30.12- 51.4 43.2 42.6---
2024-03-03 12:42 pm SE 8.0 11.1----30.12- 51.6 43.2 42.6---
2024-03-03 12:36 pm SE 9.9 12.0----30.13- 50.7 43.2 42.4---
2024-03-03 12:30 pm SE 8.0 9.9----30.13- 50.9 43.2 42.6---
2024-03-03 12:24 pm SE 8.0 9.9----30.13- 51.3 43.2 42.6---
2024-03-03 12:18 pm SE 8.0 9.9----30.13-- 43.2----
2024-03-03 12:12 pm SE 6.0 11.1----30.14-- 43.2----
2024-03-03 12:06 pmESE 6.0 8.0----30.14-- 43.2----
2024-03-03 12:00 pm SE 7.0 9.9----30.14-- 43.3----
2024-03-03 11:54 amSSE 8.9 11.1----30.14-- 43.3----
2024-03-03 11:48 amSSE 7.0 9.9----30.15- 50.9 43.3 42.6---
2024-03-03 11:42 am SE 7.0 8.0----30.15- 50.7 43.3 42.6---
2024-03-03 11:36 am SE 6.0 7.0----30.15- 50.4 43.3 43.0---
2024-03-03 11:30 amSSE 6.0 11.1----30.15- 50.4 43.3 42.4---
2024-03-03 11:24 amSSE 9.9 11.1----30.15- 50.5 43.2 42.3---
2024-03-03 11:18 amSSE 7.0 8.9----30.15- 50.7 43.2 42.6---
2024-03-03 11:12 amSSE 6.0 8.9----30.15- 50.7 43.2 42.6---
2024-03-03 11:06 amSSE 8.0 9.9----30.15- 50.7 43.2 42.6---
2024-03-03 11:00 amSSE 8.0 8.9----30.15+0.00 50.5 43.2 42.3---
2024-03-03 10:54 am SE 7.0 9.9----30.15- 50.7 43.2 42.6---
2024-03-03 10:48 amSSE 9.9 11.1----30.15- 50.5 43.2 42.3---
2024-03-03 10:42 am SE 7.0 9.9----30.15- 50.4 43.2 41.9---
2024-03-03 10:36 am SE 8.0 13.0----30.15- 50.5 43.2 41.9---
2024-03-03 10:30 amSSE 7.0 8.9----30.16- 50.5 43.2 42.3---
2024-03-03 10:24 am SE 8.9 11.1----30.15- 50.5 43.0 42.6---
2024-03-03 10:18 amESE 6.0 8.0----30.15- 50.4 43.0 42.6---
2024-03-03 10:12 am SE 6.0 8.0----30.15- 50.2 43.0 43.2---
2024-03-03 10:06 am SE 5.1 7.0----30.16- 50.2 43.0 43.0---
2024-03-03 10:00 amESE 5.1 7.0----30.16+0.01 50.0 43.2 43.0---
2024-03-03 09:54 amESE 5.1 7.0----30.15- 50.0 43.2 43.2---
2024-03-03 09:48 amESE 5.1 7.0----30.15- 49.8 43.2 43.3---
2024-03-03 09:42 amESE 5.1 6.0----30.15- 49.6 43.0 43.9---
2024-03-03 09:36 amESE 5.1 5.1----30.15- 49.3 43.0 44.1---
2024-03-03 09:30 amESE 4.1 5.1----30.15-------
2024-03-03 09:24 am SE 5.1 5.1----30.15-------
2024-03-03 09:18 am SE 5.1 5.1----30.16-- 42.8----
2024-03-03 09:12 amESE 5.1 6.0----30.16-- 42.8----
2024-03-03 09:06 amESE 5.1 7.0----30.16-- 42.8----
2024-03-03 09:00 amESE 5.1 7.0------ 48.2 42.8 44.4---
2024-03-03 08:54 am SE 6.0 6.0------ 48.0 42.8 44.2---
2024-03-03 08:48 am SE 5.1 6.0----30.16-- 42.6----
2024-03-03 08:42 am SE 5.1 5.1----30.16-- 42.6----
2024-03-03 08:36 am SE 4.1 5.1----30.16-- 42.6----
2024-03-03 08:30 am SE 2.9 4.1----30.16-- 42.6----
2024-03-03 08:24 am SE 2.9 4.1----30.16-- 42.6----
2024-03-03 08:18 amESE 2.9 5.1----30.16- 46.6 42.6 44.4---
2024-03-03 08:12 amESE 2.9 4.1----30.16- 46.2 42.6 44.1---
2024-03-03 08:06 amESE 4.1 4.1----30.16- 46.4 42.6 44.4---
2024-03-03 08:00 amESE 4.1 4.1----30.16+0.02 46.0- 44.6---
2024-03-03 07:54 am SE 2.9 6.0----30.16- 45.7- 44.4---
2024-03-03 07:48 am SE 5.1 6.0----30.16-- 42.6----
2024-03-03 07:42 amSSE 5.1 6.0----30.16-- 42.6----
2024-03-03 07:36 am SE 4.1 6.0----30.15-- 42.6----
2024-03-03 07:30 am---------- 42.6----
2024-03-03 07:24 am---------- 42.6----
2024-03-03 07:18 am SE 5.1 6.0----30.15- 45.3 42.6 44.6---
2024-03-03 07:12 am SE 5.1 5.1----30.15- 45.3 42.6 44.4---
2024-03-03 07:06 amSSE 4.1 5.1----30.14- 45.3 42.6 44.4---
2024-03-03 07:00 amSSE 4.1 6.0----30.14+0.02 45.3 42.6 44.6---
2024-03-03 06:54 am SE 5.1 5.1----30.14- 45.1 42.4 44.4---
2024-03-03 06:48 am SE 4.1 5.1----30.14- 45.1 42.4 44.2---
2024-03-03 06:42 am SE 4.1 4.1----30.15- 44.8 42.6 44.2---
2024-03-03 06:36 am SE 4.1 4.1----30.15- 45.1 42.4 44.4---
2024-03-03 06:30 amSSE 4.1 5.1----30.15- 45.1 42.4 44.4---
2024-03-03 06:24 amSSE 4.1 5.1----30.15- 44.8 42.4 44.2---
2024-03-03 06:18 amSSE 4.1 6.0----30.14- 45.0 42.4 44.4---
2024-03-03 06:12 am SE 5.1 6.0----30.14- 45.1 42.4 44.4---
2024-03-03 06:06 am SE 5.1 6.0----30.14- 45.3 42.4 44.4---
2024-03-03 06:00 am SE 5.1 6.0----30.14+0.02- 42.4----
2024-03-03 05:54 am SE 5.1 5.1----30.14-- 42.4----
2024-03-03 05:48 am SE 4.1 5.1----30.14- 45.1 42.4 44.4---
2024-03-03 05:42 am SE 4.1 5.1----30.14- 45.3 42.4 44.4---
2024-03-03 05:36 amESE 2.9 4.1----30.14- 45.3 42.4 44.4---
2024-03-03 05:30 amESE 2.9 4.1----30.14- 45.3 42.4 44.4---
2024-03-03 05:24 amESE 1.9 4.1----30.13- 45.1 42.4 44.2---
2024-03-03 05:18 amESE 2.9 4.1----30.13- 45.1 42.4 44.4---
2024-03-03 05:12 am SE 2.9 5.1----30.13- 45.1 42.4 44.4---
2024-03-03 05:06 am SE 4.1 6.0----30.13- 45.1 42.3 44.4---
2024-03-03 05:00 am SE 5.1 5.1----30.13+0.00 45.0 42.3 44.4---
2024-03-03 04:54 am SE 5.1 6.0----30.13- 44.6 42.3 44.2---
2024-03-03 04:48 am SE 5.1 6.0----30.13- 44.8 42.3 44.1---
2024-03-03 04:42 amSSE 4.1 5.1----30.13- 44.8 42.4 44.1---
2024-03-03 04:36 amSSE 2.9 2.9----30.13- 44.8 42.4 44.2---
2024-03-03 04:30 am SE 2.9 4.1----30.13- 44.8 42.3 44.2---
2024-03-03 04:24 am SE 2.9 4.1----30.12- 44.6 42.4 44.1---
2024-03-03 04:18 am SE 4.1 4.1----30.12- 44.4 42.3 44.1---
2024-03-03 04:12 am SE 2.9 2.9----30.12- 44.6 42.3 44.2---
2024-03-03 04:06 am SE 2.9 4.1----30.12- 44.4 42.3 44.2---
2024-03-03 04:00 am SE 4.1 5.1----30.12+0.00 44.6 42.3 44.2---
2024-03-03 03:54 am SE 4.1 4.1----30.12- 44.8 42.3 44.2---
2024-03-03 03:48 am SE 2.9 4.1----30.12- 44.6 42.3 44.1---
2024-03-03 03:42 am SE 2.9 4.1----30.12- 44.6 42.3 44.1---
2024-03-03 03:36 am SE 4.1 5.1----30.12- 44.8 42.3 44.2---
2024-03-03 03:30 am SE 4.1 6.0----30.12- 44.6 42.3 44.1---
2024-03-03 03:24 amSSE 5.1 5.1----30.12- 44.6 42.3 44.2---
2024-03-03 03:18 am SE 4.1 5.1----30.12- 44.6 42.3 44.1---
2024-03-03 03:12 am SE 2.9 4.1----30.12- 44.4 42.3 44.1---
2024-03-03 03:06 am SE 2.9 4.1----30.12- 44.4 42.3 43.9---
2024-03-03 03:00 am SE 2.9 2.9----30.12+0.01 44.1 42.3 42.6---
2024-03-03 02:54 am SE 2.9 2.9----30.12- 43.9 42.3 43.9---
2024-03-03 02:48 amESE 2.9 2.9----30.12- 43.0 42.3 43.0---
2024-03-03 02:42 amESE 1.9 2.9----30.12- 42.6 42.3 42.6---
2024-03-03 02:36 amESE 1.9 2.9----30.12- 42.6 42.3 42.6---
2024-03-03 02:30 amESE 2.9 2.9----30.12- 42.6 42.3 42.6---
2024-03-03 02:24 amESE 2.9 2.9----30.13- 42.6 42.1 42.6---
2024-03-03 02:18 am SE 2.9 2.9----30.13- 43.5 42.1 43.5---
2024-03-03 02:12 am SE 2.9 2.9----30.13- 43.7 42.1 43.7---
2024-03-03 02:06 am SE 2.9 4.1----30.13- 43.3 42.1 43.3---
2024-03-03 02:00 am SE 2.9 4.1----30.13+0.02 43.0 42.1 43.0---
2024-03-03 01:54 am SE 2.9 4.1----30.12- 43.0 42.1 43.0---
2024-03-03 01:48 amSSE 4.1 4.1----30.12- 42.8 42.1 42.8---
2024-03-03 01:42 amSSE 2.9 2.9----30.12- 43.2 42.1 43.2---
2024-03-03 01:36 am SE 2.9 2.9----30.12- 42.8 42.1 42.8---
2024-03-03 01:30 am SE 1.9 1.9----30.12- 43.0 42.1 43.0---
2024-03-03 01:24 am SE 1.9 1.9----30.12- 43.2 42.1 43.2---
2024-03-03 01:18 am SE 1.9 1.9----30.12- 43.7 42.1 43.7---
2024-03-03 01:12 amESE 1.9 1.9----30.12- 43.2 42.1 43.2---
2024-03-03 01:06 am SE 2.9 2.9----30.12- 43.3 42.1 43.3---
2024-03-03 01:00 am SE 2.9 2.9----30.12+0.01 43.0 42.1 43.0---
2024-03-03 12:54 am SE 2.9 2.9----30.11- 42.8 42.1 42.8---
2024-03-03 12:48 am SE 2.9 2.9----30.11- 42.8 42.1 42.8---
2024-03-03 12:42 am SE 1.9 2.9----30.11- 42.6 42.1 42.6---
2024-03-03 12:36 am SE 2.9 2.9----30.11- 41.9 42.1 41.9---
2024-03-03 12:30 amESE 2.9 2.9----30.11- 41.5 42.1 41.5---
2024-03-03 12:24 amESE 2.9 2.9----30.11- 41.5 42.1 41.5---
2024-03-03 12:18 amESE 2.9 4.1----30.11- 41.7 42.1 41.7---
2024-03-03 12:12 amESE 2.9 2.9----30.11- 41.7 42.1 41.7---
2024-03-03 12:06 amESE 2.9 2.9----30.11- 41.9 42.1 41.9---
2024-03-03 12:00 amESE 1.9 1.9----30.11+0.00 41.5 42.1 41.5---
2024-03-02 11:54 pmESE 1.9 1.9----30.11- 41.4 42.1 41.4---
2024-03-02 11:48 pm SE 1.0 1.9----30.11- 41.2 42.1 41.2---
2024-03-02 11:42 pm SE 1.9 2.9----30.11- 41.2 42.1 41.2---
2024-03-02 11:36 pm SE 2.9 2.9----30.11- 41.0 42.1 41.0---
2024-03-02 11:30 pmESE 1.9 1.9----30.11- 40.8 42.1 40.8---
2024-03-02 11:24 pmESE 1.9 1.9----30.11- 40.6 42.1 40.6---
2024-03-02 11:18 pmESE 1.9 1.9----30.11- 40.6 42.1 40.6---
2024-03-02 11:12 pmESE 1.9 2.9----30.11- 40.3 42.1 40.3---
2024-03-02 11:06 pmESE 2.9 2.9----30.11- 40.1 42.1 40.1---
2024-03-02 11:00 pm E 2.9 2.9----30.11+0.01 39.6 42.1 39.6---
2024-03-02 10:54 pmESE 1.9 2.9----30.11- 40.1 42.1 40.1---
2024-03-02 10:48 pmESE 2.9 2.9----30.11- 40.1 42.1 40.1---
2024-03-02 10:42 pmESE 1.9 1.9----30.11- 39.9 41.9 39.9---
2024-03-02 10:36 pmESE 1.0 1.9----30.11- 40.1 41.9 40.1---
2024-03-02 10:30 pmESE 1.9 1.9----30.11- 40.1 42.1 40.1---
2024-03-02 10:24 pmESE 1.0 1.9----30.11- 40.3 42.1 40.3---
2024-03-02 10:18 pm SE 1.0 1.9----30.11- 40.6 42.1 40.6---
2024-03-02 10:12 pmESE 1.0 1.9----30.11- 40.5 42.1 40.5---
2024-03-02 10:06 pmESE 1.9 1.9----30.11- 40.3 42.1 40.3---
2024-03-02 10:00 pmESE 1.9 1.9----30.11+0.01 40.6 41.9 40.6---
2024-03-02 09:54 pmESE 1.0 2.9----30.11- 41.7 41.9 41.7---
2024-03-02 09:48 pmESE 1.9 2.9----30.10- 41.7 42.1 41.7---
2024-03-02 09:42 pm SE 2.9 2.9----30.10- 41.2 42.1 41.2---
2024-03-02 09:36 pm SE 1.9 1.9----30.10- 41.0 42.1 41.0---
2024-03-02 09:30 pm SE 1.9 1.9----30.10- 41.5 41.9 41.5---
2024-03-02 09:24 pm SE 1.9 2.9----30.11- 41.5 41.9 41.5---
2024-03-02 09:18 pm SE 2.9 2.9----30.11- 41.0 41.9 41.0---
2024-03-02 09:12 pm SE 2.9 2.9----30.11- 40.8 41.9 40.8---
2024-03-02 09:06 pmSSE 1.9 1.9----30.11- 41.2 41.9 41.2---
2024-03-02 09:00 pmSSE 1.9 1.9----30.11+0.02 42.6 41.9 42.6---
2024-03-02 08:54 pmSSE 1.9 1.9----30.11- 42.4 42.1 42.4---
2024-03-02 08:48 pmSSE 1.9 1.9----30.11- 42.6 42.1 42.6---
2024-03-02 08:42 pm SE 1.9 1.9----30.10- 42.4 41.9 42.4---
2024-03-02 08:36 pm SE 1.9 1.9----30.10- 41.7 41.9 41.7---
2024-03-02 08:30 pm SE 1.9 1.9----30.10- 41.5 41.9 41.5---
2024-03-02 08:24 pm SE 1.0 1.9----30.10- 42.3 41.9 42.3---
2024-03-02 08:18 pm SE 1.0 1.0----30.10- 43.0 41.9 43.0---
2024-03-02 08:12 pm SE 1.0 1.0----30.10- 43.0 41.9 43.0---
2024-03-02 08:06 pm- 0.0 1.0----30.10- 42.8 41.9 42.8---
2024-03-02 08:00 pm SE 1.0 1.9----30.10+0.01 42.8 41.9 42.8---
2024-03-02 07:54 pm SE 1.9 1.9----30.10- 42.8 41.9 42.8---
2024-03-02 07:48 pm SE 1.9 1.9----30.10- 42.6 41.9 42.6---
2024-03-02 07:42 pm SE 1.9 2.9----30.10- 42.4 41.9 42.4---
2024-03-02 07:36 pm SE 1.9 1.9----30.10- 41.7 42.1 41.7---
2024-03-02 07:30 pm SE 1.9 1.9----30.10- 41.7 41.9 41.7---
2024-03-02 07:24 pmESE 1.0 1.9----30.10- 40.8 41.9 40.8---
2024-03-02 07:18 pmESE 1.9 2.9----30.10- 40.8 41.9 40.8---
2024-03-02 07:12 pmESE 1.9 1.9----30.10- 40.8 41.9 40.8---
2024-03-02 07:06 pmESE 1.0 1.9----30.09- 40.6 41.9 40.6---
2024-03-02 07:00 pm- 0.0 2.9----30.10+0.00 41.7 41.9 41.7---
2024-03-02 06:54 pm SE 1.9 2.9----30.09- 41.4 41.9 41.4---
2024-03-02 06:48 pm SE 1.9 1.9----30.09-- 41.9----
2024-03-02 06:42 pm SE 1.0 1.9----30.09-- 41.9----
2024-03-02 06:36 pmESE 1.0 1.9----30.09-- 41.9----
2024-03-02 06:30 pm E 1.0 1.0----30.09- 42.3 41.9 42.3---
2024-03-02 06:24 pmENE 1.0 1.9----30.09- 42.1 41.9 42.1---
2024-03-02 06:00 pm S 1.0 2.9----30.09- 41.9 41.9 41.7---
2024-03-02 05:54 pmSSW 1.9 2.9----30.09- 41.9 41.9 41.9---
2024-03-02 05:48 pmSSW 1.9 1.9----30.09- 41.9 41.9 41.9---
2024-03-02 05:42 pm- 0.0 0.0----30.09- 41.5 41.9 41.2---
2024-03-02 05:36 pm- 0.0 1.0----30.09- 41.7 41.9 41.7---
2024-03-02 05:30 pm SW 1.0 1.0----30.09-- 41.9----
2024-03-02 05:24 pmSSW 1.0 1.9----30.09-- 41.9----
2024-03-02 05:18 pm S 1.9 2.9----30.09-- 41.9----
2024-03-02 05:12 pm S 2.9 2.9----30.09-- 42.1----
2024-03-02 05:06 pm SW 2.9 4.1----30.09-- 41.9----
2024-03-02 05:00 pm S 2.9 4.1----30.09+0.00 40.5 41.9 40.5---
2024-03-02 04:54 pmSSW 2.9 4.1----30.09- 40.3 41.9 40.3---
2024-03-02 04:48 pmWSW 4.1 4.1----30.09- 40.1 41.9 40.1---
2024-03-02 04:42 pmWSW 5.1 5.1----30.09- 40.1 41.9 40.1---
2024-03-02 04:36 pm W 5.1 6.0----30.09- 40.1 41.9 40.1---
2024-03-02 04:30 pm W 5.1 6.0----30.09- 40.1- 40.1---
2024-03-02 04:24 pm W 5.1 6.0----30.09- 39.9- 39.9---
2024-03-02 04:18 pm W 6.0 7.0----30.09- 40.3 41.9 40.3---
2024-03-02 04:12 pm W 6.0 7.0----30.09- 40.3 41.9 40.3---
2024-03-02 04:06 pm W 6.0 6.0----30.09- 40.5 41.9 40.5---
2024-03-02 04:00 pm W 6.0 6.0----30.09+0.00 40.6 41.9 40.6---
2024-03-02 03:54 pm W 6.0 6.0----30.09- 40.8 41.7 40.8---